This is the latest recevied weather packets stored in our database for station/object K5SVV. If no packets are shown the sender has not sent any weather packets the latest 10 day(s).
| Time | Temp. | Humidity | Pressure | Rain* | Wind** | Luminosity | Snow |
|---|---|---|---|---|---|---|---|
| 1788238282 | 28.33° C | 53% | 1014.4 hPa | 0 mm | - | 0 W/m² | - |
| 1788237977 | 27.78° C | 54% | 1014.6 hPa | 0 mm | - | 0 W/m² | - |
| 1788237673 | 27.78° C | 55% | 1014.2 hPa | 0 mm | - | 0 W/m² | - |
| 1788237369 | 27.78° C | 55% | 1014.1 hPa | 0 mm | - | 0 W/m² | - |
| 1788237064 | 27.78° C | 55% | 1014.1 hPa | 0 mm | - | 0 W/m² | - |
| 1788236763 | 27.78° C | 56% | 1014.1 hPa | 0 mm | - | 0 W/m² | - |
| 1788236459 | 27.78° C | 56% | 1014.2 hPa | 0 mm | - | 0 W/m² | - |
| 1788236154 | 27.78° C | 55% | 1013.9 hPa | 0 mm | - | 0 W/m² | - |
| 1788235848 | 28.33° C | 54% | 1014 hPa | 0 mm | - | 0 W/m² | - |
| 1788235548 | 28.33° C | 53% | 1014.1 hPa | 0 mm | - | 0 W/m² | - |
| 1788235243 | 28.33° C | 53% | 1014.2 hPa | 0 mm | - | 0 W/m² | - |
| 1788234941 | 28.33° C | 53% | 1014.2 hPa | 0 mm | - | 0 W/m² | - |
| 1788234639 | 28.89° C | 52% | 1014.2 hPa | 0 mm | - | 0 W/m² | - |
| 1788234333 | 28.89° C | 52% | 1014.2 hPa | 0 mm | - | 0 W/m² | - |
| 1788234028 | 28.33° C | 52% | 1014.2 hPa | 0 mm | - | 0 W/m² | - |
| 1788233745 | 28.33° C | 53% | 1014.5 hPa | 0 mm | - | 0 W/m² | - |
| 1788233421 | 28.33° C | 55% | 1014 hPa | 0 mm | - | 0 W/m² | - |
| 1788233116 | 28.89° C | 54% | 1014.1 hPa | 0 mm | - | 0 W/m² | - |
| 1788232816 | 28.89° C | 53% | 1014.5 hPa | 0 mm | - | 0 W/m² | - |
| 1788232511 | 28.89° C | 53% | 1014.1 hPa | 0 mm | - | 0 W/m² | - |
| 1788232206 | 28.89° C | 52% | 1014.1 hPa | 0 mm | - | 0 W/m² | - |
| 1788231896 | 28.89° C | 51% | 1013.9 hPa | 0 mm | - | 0 W/m² | - |
| 1788231595 | 28.89° C | 52% | 1014.1 hPa | 0 mm | - | 0 W/m² | - |
| 1788231290 | 29.44° C | 51% | 1013.9 hPa | 0 mm | - | 0 W/m² | - |
| 1788230989 | 29.44° C | 50% | 1013.9 hPa | 0 mm | - | 0 W/m² | - |
* Rain latest hour (hover to see other rain measurements)
** Current wind speed in m/s (hover to see current wind gust speed)